Time,TemperatureF,DewpointF,PressureIn,WindDirection,WindDirectionDegrees,WindSpeedMPH,WindSpeedGustMPH,Humidity,HourlyPrecipIn,Conditions,Clouds,dailyrainin,SoftwareType,DateUTC
2013-01-02 14:23:00,35.0,13.0,-100.00,NW,316,11.0,-999.0,41,-99.99,,,-99.99,,2013-01-02 19:23:00,
2013-01-02 14:33:00,35.0,13.0,-100.00,NW,316,11.0,-999.0,41,-99.99,,,-99.99,,2013-01-02 19:33:00,
2013-01-02 14:43:00,35.0,13.0,-100.00,NNW,333,10.0,-999.0,40,-99.99,,,-99.99,,2013-01-02 19:43:00,
2013-01-02 14:53:00,35.0,13.0,-100.00,NNW,333,10.0,-999.0,40,-99.99,,,-99.99,,2013-01-02 19:53:00,
2013-01-02 15:03:00,35.0,13.0,-100.00,NW,326,8.0,-999.0,40,-99.99,,,-99.99,,2013-01-02 20:03:00,
2013-01-02 15:12:00,35.0,13.0,-100.00,NW,317,8.0,-999.0,40,-99.99,,,-99.99,,2013-01-02 20:12:00,
2013-01-02 15:23:00,35.0,13.0,-100.00,NW,317,8.0,-999.0,40,-99.99,,,-99.99,,2013-01-02 20:23:00,
2013-01-02 15:33:00,35.0,12.0,-100.00,NNW,329,12.0,-999.0,39,-99.99,,,-99.99,,2013-01-02 20:33:00,
2013-01-02 15:42:00,35.0,12.0,-100.00,NNW,327,9.0,-999.0,39,-99.99,,,-99.99,,2013-01-02 20:42:00,
2013-01-02 15:53:00,35.0,12.0,-100.00,NNW,327,9.0,-999.0,39,-99.99,,,-99.99,,2013-01-02 20:53:00,
2013-01-02 16:03:00,35.0,13.0,-100.00,NNW,342,9.0,-999.0,39,-99.99,,,-99.99,,2013-01-02 21:03:00,
2013-01-02 16:13:00,35.0,12.0,-100.00,NW,322,10.0,-999.0,39,-99.99,,,-99.99,,2013-01-02 21:13:00,
2013-01-02 16:23:00,35.0,12.0,-100.00,NW,322,10.0,-999.0,39,-99.99,,,-99.99,,2013-01-02 21:23:00,
2013-01-02 16:33:00,34.0,12.0,-100.00,NW,320,10.0,-999.0,40,-99.99,,,-99.99,,2013-01-02 21:33:00,
2013-01-02 16:43:00,34.0,12.0,-100.00,NW,319,7.0,-999.0,40,-99.99,,,-99.99,,2013-01-02 21:43:00,
2013-01-02 16:53:00,34.0,12.0,-100.00,NW,319,7.0,-999.0,40,-99.99,,,-99.99,,2013-01-02 21:53:00,
2013-01-02 17:03:00,34.0,13.0,-100.00,NW,315,6.0,-999.0,40,-99.99,,,-99.99,,2013-01-02 22:03:00,
2013-01-02 17:13:00,34.0,13.0,-100.00,NW,315,6.0,-999.0,40,-99.99,,,-99.99,,2013-01-02 22:13:00,
2013-01-02 17:22:00,34.0,13.0,-100.00,NW,316,6.0,-999.0,40,-99.99,,,-99.99,,2013-01-02 22:22:00,
2013-01-02 17:32:00,34.0,13.0,-100.00,NW,313,5.0,-999.0,41,-99.99,,,-99.99,,2013-01-02 22:32:00,
2013-01-02 17:43:00,34.0,13.0,-100.00,NNW,327,5.0,-999.0,40,-99.99,,,-99.99,,2013-01-02 22:43:00,
2013-01-02 17:53:00,34.0,13.0,-100.00,NNW,327,5.0,-999.0,40,-99.99,,,-99.99,,2013-01-02 22:53:00,
2013-01-02 18:03:00,34.0,12.0,-100.00,NNW,338,5.0,-999.0,40,-99.99,,,-99.99,,2013-01-02 23:03:00,
2013-01-02 18:13:00,34.0,12.0,-100.00,NNW,338,5.0,-999.0,40,-99.99,,,-99.99,,2013-01-02 23:13:00,
2013-01-02 18:23:00,34.0,12.0,-100.00,NNW,338,5.0,-999.0,40,-99.99,,,-99.99,,2013-01-02 23:23:00,
2013-01-02 18:33:00,34.0,12.0,-100.00,NW,319,4.0,-999.0,40,-99.99,,,-99.99,,2013-01-02 23:33:00,
2013-01-02 18:42:00,34.0,12.0,-100.00,NW,319,4.0,-999.0,40,-99.99,,,-99.99,,2013-01-02 23:42:00,
2013-01-02 18:53:00,34.0,12.0,-100.00,NNW,342,4.0,-999.0,40,-99.99,,,-99.99,,2013-01-02 23:53:00,
2013-01-02 19:02:00,34.0,11.0,-100.00,NNW,342,6.0,-999.0,39,-99.99,,,-99.99,,2013-01-03 00:02:00,
2013-01-02 19:12:00,34.0,11.0,-100.00,NNW,342,6.0,-999.0,39,-99.99,,,-99.99,,2013-01-03 00:12:00,
2013-01-02 19:22:00,34.0,11.0,-100.00,NNW,342,6.0,-999.0,39,-99.99,,,-99.99,,2013-01-03 00:22:00,
2013-01-02 19:38:00,34.0,10.0,-100.00,NNW,340,5.0,-999.0,37,-99.99,,,-99.99,,2013-01-03 00:38:00,
2013-01-02 19:53:00,33.0,9.0,-100.00,NNW,336,5.0,-999.0,35,-99.99,,,-99.99,,2013-01-03 00:53:00,
2013-01-02 20:02:00,33.0,9.0,-100.00,NNW,334,4.0,-999.0,35,-99.99,,,-99.99,,2013-01-03 01:02:00,
2013-01-02 20:12:00,33.0,9.0,-100.00,NNW,334,4.0,-999.0,35,-99.99,,,-99.99,,2013-01-03 01:12:00,
2013-01-02 20:22:00,33.0,9.0,-100.00,NNW,341,5.0,-999.0,36,-99.99,,,-99.99,,2013-01-03 01:22:00,
2013-01-02 20:32:00,33.0,9.0,-100.00,NNW,341,5.0,-999.0,36,-99.99,,,-99.99,,2013-01-03 01:32:00,
2013-01-02 20:42:00,33.0,9.0,-100.00,NNW,341,5.0,-999.0,36,-99.99,,,-99.99,,2013-01-03 01:42:00,
2013-01-02 20:53:00,33.0,10.0,-100.00,NNW,344,3.0,-999.0,37,-99.99,,,-99.99,,2013-01-03 01:53:00,
2013-01-02 21:02:00,33.0,10.0,-100.00,North,0,5.0,-999.0,38,-99.99,,,-99.99,,2013-01-03 02:02:00,
2013-01-02 21:12:00,33.0,10.0,-100.00,North,0,5.0,-999.0,38,-99.99,,,-99.99,,2013-01-03 02:12:00,
2013-01-02 21:22:00,32.0,10.0,-100.00,North,350,5.0,-999.0,38,-99.99,,,-99.99,,2013-01-03 02:22:00,
2013-01-02 21:33:00,32.0,9.0,-100.00,North,352,7.0,-999.0,38,-99.99,,,-99.99,,2013-01-03 02:33:00,
2013-01-02 21:43:00,32.0,9.0,-100.00,North,352,7.0,-999.0,38,-99.99,,,-99.99,,2013-01-03 02:43:00,
2013-01-02 21:52:00,32.0,9.0,-100.00,North,352,7.0,-999.0,38,-99.99,,,-99.99,,2013-01-03 02:52:00,
2013-01-02 22:02:00,32.0,9.0,-100.00,NNW,336,5.0,-999.0,38,-99.99,,,-99.99,,2013-01-03 03:02:00,
2013-01-02 22:12:00,32.0,9.0,-100.00,NNW,336,5.0,-999.0,38,-99.99,,,-99.99,,2013-01-03 03:12:00,
2013-01-02 22:22:00,32.0,9.0,-100.00,NNW,341,4.0,-999.0,39,-99.99,,,-99.99,,2013-01-03 03:22:00,
2013-01-02 22:47:00,32.0,10.0,-100.00,NNW,346,3.0,-999.0,39,-99.99,,,-99.99,,2013-01-03 03:47:00,
2013-01-02 22:53:00,32.0,9.0,-100.00,NW,325,4.0,-999.0,38,-99.99,,,-99.99,,2013-01-03 03:53:00,
2013-01-02 23:02:00,32.0,10.0,-100.00,NNW,330,3.0,-999.0,39,-99.99,,,-99.99,,2013-01-03 04:02:00,
2013-01-02 23:12:00,32.0,10.0,-100.00,NNW,330,3.0,-999.0,39,-99.99,,,-99.99,,2013-01-03 04:12:00,
2013-01-02 23:22:00,31.0,10.0,-100.00,NNW,334,4.0,-999.0,39,-99.99,,,-99.99,,2013-01-03 04:22:00,
2013-01-02 23:32:00,31.0,9.0,-100.00,NNW,343,4.0,-999.0,39,-99.99,,,-99.99,,2013-01-03 04:32:00,
2013-01-02 23:42:00,31.0,9.0,-100.00,NNW,343,4.0,-999.0,39,-99.99,,,-99.99,,2013-01-03 04:42:00,
2013-01-02 23:53:00,31.0,10.0,-100.00,NNW,347,4.0,-999.0,40,-99.99,,,-99.99,,2013-01-03 04:53:00,